Weather History for KCON - November, 2013

Change the Weather History Date:

Thursday, November 21, 2013

  Actual Average Record
Temperature  
Mean Temperature 30 °F 36 °F  
Max Temperature 47 °F 46 °F 70 °F (1931)
Min Temperature 12 °F 27 °F 4 °F (1873)
Degree Days  
Heating Degree Days 35 29  
Month to date heating degree days 550 527  
Since 1 July heating degree days 1265 1286  
Cooling Degree Days 0 0  
Month to date cooling degree days 0 0  
Year to date cooling degree days 537 452  
Moisture  
Dew Point 14 °F    
Average Humidity 56    
Maximum Humidity 92    
Minimum Humidity 20    
Precipitation  
Precipitation 0.00 in 0.13 in 1.19 in (1986)
Month to date precipitation 0.82 2.65  
Year to date precipitation 35.20 36.34  
Snow  
Snow 0.00 in 0.10 in 2.80 in (1978)
Month to date snowfall T 1.1  
Since 1 July snowfall T 1.1  
Since 1 September snowfall T 1.1  
Snow Depth 0.00 in    
Sea Level Pressure  
Sea Level Pressure 30.55 in    
Wind  
Wind Speed 1 mph (ENE)    
Max Wind Speed 8 mph    
Max Gust Speed 13 mph    
Visibility 10 miles    
Events      
T = Trace of Precipitation, MM = Missing Value Source: NWS Daily Summary

Daily Weather History Graph

Daily Weather History Graph

Search for Another Location

Airport or City:

Trip Planner

Search our weather history database for the weather conditions in past years. The results will help you decide how hot, cold, wet, or windy it might be!

Date:

Astronomy

Nov. 21, 2013 Rise Set
Actual Time 6:46 AM EST 4:16 PM EST
Civil Twilight 6:15 AM EST 4:47 PM EST
Nautical Twilight 5:40 AM EST 5:22 PM EST
Astronomical Twilight 5:06 AM EST 5:56 PM EST
Moon 7:51 PM EST (11/21) 9:50 AM EST (11/21)
Length of Visible Light 10h 32m
Length of Day
9h 30m
Waning Gibbous, 85% of the Moon is Illuminated
Nov 21
Waning Gibbous
Nov 25
Last Quarter
Dec 2
New
Dec 9
First Quarter
Dec 17
Full

Hourly Weather History & Observations

Time (EST) Temp. Windchill Dew Point Humidity Pressure Visibility Wind Dir Wind Speed Gust Speed Precip Events Conditions
12:51 AM 17.1 °F - 14.0 °F 88% 30.64 in 10.0 mi Calm Calm - N/A   Clear
1:51 AM 16.0 °F - 12.0 °F 84% 30.66 in 10.0 mi Calm Calm - N/A   Clear
2:51 AM 15.1 °F - 12.0 °F 88% 30.65 in 10.0 mi Calm Calm - N/A   Clear
3:51 AM 16.0 °F - 12.9 °F 88% 30.64 in 9.0 mi Calm Calm - N/A   Clear
4:51 AM 14.0 °F 8.2 °F 10.9 °F 88% 30.64 in 10.0 mi ENE 3.5 mph - N/A   Clear
5:51 AM 15.1 °F 9.4 °F 12.0 °F 88% 30.65 in 10.0 mi NE 3.5 mph - N/A   Clear
6:51 AM 12.9 °F - 10.0 °F 88% 30.66 in 10.0 mi Calm Calm - N/A   Clear
7:51 AM 18.0 °F - 15.1 °F 88% 30.65 in 10.0 mi Calm Calm - N/A   Clear
8:51 AM 25.0 °F - 19.0 °F 78% 30.63 in 10.0 mi Calm Calm - N/A   Clear
9:51 AM 30.0 °F - 17.1 °F 59% 30.63 in 10.0 mi Calm Calm - N/A   Clear
10:51 AM 36.0 °F - 15.1 °F 43% 30.60 in 10.0 mi Calm Calm - N/A   Clear
11:51 AM 41.0 °F 39.0 °F 12.0 °F 31% 30.57 in 10.0 mi Variable 3.5 mph - N/A   Clear
12:51 PM 44.1 °F - 10.0 °F 25% 30.53 in 10.0 mi Calm Calm - N/A   Clear
1:51 PM 45.0 °F 42.6 °F 6.1 °F 20% 30.50 in 10.0 mi SW 4.6 mph - N/A   Clear
2:51 PM 44.1 °F 41.5 °F 6.1 °F 21% 30.48 in 10.0 mi Variable 4.6 mph - N/A   Clear
3:51 PM 42.1 °F - 7.0 °F 24% 30.47 in 10.0 mi Calm Calm - N/A   Clear
4:51 PM 37.9 °F - 9.0 °F 30% 30.47 in 10.0 mi Calm Calm - N/A   Clear
5:51 PM 33.1 °F - 15.1 °F 48% 30.47 in 10.0 mi Calm Calm - N/A   Clear
6:51 PM 33.1 °F - 16.0 °F 50% 30.46 in 10.0 mi Calm Calm - N/A   Clear
7:51 PM 32.0 °F 28.7 °F 16.0 °F 52% 30.45 in 10.0 mi ENE 3.5 mph - N/A   Clear
8:51 PM 30.0 °F 26.5 °F 18.0 °F 61% 30.43 in 10.0 mi NE 3.5 mph - N/A   Clear
9:51 PM 30.0 °F - 19.9 °F 66% 30.42 in 10.0 mi Calm Calm - N/A   Clear
10:51 PM 30.9 °F - 21.9 °F 69% 30.40 in 10.0 mi Calm Calm - N/A   Mostly Cloudy
11:51 PM 30.0 °F - 23.0 °F 75% 30.37 in 10.0 mi Calm Calm - N/A   Overcast